• In Switzerland
  • List of Countries
  • For 7 days
  • Water Temperature
  • Satellite Maps
  • Weather Map
  • Weather Widgets
  • user-avatar
    Login

    Hourly Weather Aarau

    Today, 16 October, Tuesday

    Time Temperature Precipitation Wind Pressure Humidity
    00:00 +12°C° 0 mm 1 mps 726 mmHg 77%
    01:00 +12°C° 0 mm 1 mps 726 mmHg 77%
    02:00 +12°C° 0 mm 1 mps 726 mmHg 77%
    03:00 +12°C° 0 mm 1 mps 726 mmHg 77%
    04:00 +11°C° 0 mm 1 mps 726 mmHg 76%
    05:00 +11°C° 0 mm 1 mps 726 mmHg 76%
    06:00 +11°C° 0 mm 1 mps 727 mmHg 75%
    07:00 +11°C° 0 mm 1 mps 727 mmHg 74%
    08:00 +13°C° 0 mm 1 mps 727 mmHg 68%
    09:00 +16°C° 0 mm 1 mps 727 mmHg 61%
    10:00 +17°C° 0 mm 0 mps 728 mmHg 54%
    11:00 +20°C° 0 mm 1 mps 728 mmHg 51%
    12:00 +21°C° 0 mm 1 mps 728 mmHg 47%
    13:00 +23°C° 0 mm 1 mps 728 mmHg 44%
    14:00 +22°C° 0 mm 1 mps 727 mmHg 48%
    15:00 +22°C° 0 mm 1 mps 727 mmHg 51%
    16:00 +22°C° 0 mm 1 mps 727 mmHg 55%
    17:00 +20°C° 0 mm 1 mps 727 mmHg 62%
    18:00 +16°C° 0 mm 1 mps 727 mmHg 69%
    19:00 +14°C° 0 mm 1 mps 728 mmHg 76%
    20:00 +14°C° 0 mm 1 mps 728 mmHg 78%
    21:00 +13°C° 0 mm 1 mps 728 mmHg 79%
    22:00 +13°C° 0 mm 1 mps 728 mmHg 81%
    23:00 +13°C° 0 mm 1 mps 728 mmHg 82%

    Tomorrow, 17 October, Wednesday

    Time Temperature Precipitation Wind Pressure Humidity
    00:00 +12°C° 0 mm 1 mps 728 mmHg 83%
    01:00 +12°C° 0 mm 1 mps 728 mmHg 84%
    02:00 +12°C° 0 mm 1 mps 728 mmHg 84%
    03:00 +11°C° 0 mm 1 mps 727 mmHg 84%
    04:00 +11°C° 0 mm 1 mps 727 mmHg 84%
    05:00 +11°C° 0 mm 1 mps 727 mmHg 84%
    06:00 +11°C° 0 mm 1 mps 727 mmHg 85%
    07:00 +11°C° 0 mm 1 mps 727 mmHg 85%
    08:00 +13°C° 0 mm 1 mps 727 mmHg 77%
    09:00 +15°C° 0 mm 1 mps 727 mmHg 69%
    10:00 +19°C° 0 mm 1 mps 727 mmHg 62%
    11:00 +20°C° 0 mm 1 mps 727 mmHg 58%
    12:00 +21°C° 0 mm 1 mps 727 mmHg 55%
    13:00 +22°C° 0 mm 1 mps 726 mmHg 51%
    14:00 +22°C° 0 mm 1 mps 726 mmHg 54%
    15:00 +21°C° 0 mm 1 mps 726 mmHg 57%
    16:00 +21°C° 0 mm 1 mps 726 mmHg 60%
    17:00 +19°C° 0 mm 1 mps 726 mmHg 68%
    18:00 +16°C° 0 mm 1 mps 726 mmHg 76%
    19:00 +14°C° 0 mm 1 mps 726 mmHg 84%
    20:00 +14°C° 0 mm 1 mps 726 mmHg 86%
    21:00 +13°C° 0 mm 1 mps 726 mmHg 87%
    22:00 +13°C° 0 mm 1 mps 726 mmHg 89%
    23:00 +12°C° 0 mm 1 mps 726 mmHg 89%

    Day after tomorrow, 18 October, Thursday

    Time Temperature Precipitation Wind Pressure Humidity
    00:00 +12°C° 0 mm 1 mps 726 mmHg 90%
    01:00 +12°C° 0 mm 1 mps 726 mmHg 90%
    02:00 +12°C° 0 mm 1 mps 726 mmHg 90%
    03:00 +11°C° 0 mm 1 mps 726 mmHg 90%
    04:00 +11°C° 0 mm 1 mps 726 mmHg 90%
    05:00 +11°C° 0 mm 1 mps 726 mmHg 91%
    06:00 +11°C° 0 mm 1 mps 726 mmHg 91%
    07:00 +10°C° 0 mm 1 mps 726 mmHg 91%
    08:00 +12°C° 0 mm 1 mps 726 mmHg 84%
    09:00 +14°C° 0 mm 1 mps 726 mmHg 77%
    10:00 +16°C° 0 mm 2 mps 726 mmHg 70%
    11:00 +17°C° 0 mm 2 mps 726 mmHg 66%
    12:00 +19°C° 0 mm 2 mps 726 mmHg 62%
    13:00 +20°C° 0 mm 3 mps 726 mmHg 58%
    14:00 +20°C° 0 mm 3 mps 726 mmHg 60%
    15:00 +19°C° 0 mm 3 mps 726 mmHg 62%
    16:00 +19°C° 0 mm 3 mps 725 mmHg 64%
    17:00 +17°C° 0 mm 2 mps 726 mmHg 71%
    18:00 +16°C° 0 mm 2 mps 726 mmHg 79%
    19:00 +14°C° 0 mm 2 mps 726 mmHg 87%
    20:00 +13°C° 0 mm 2 mps 726 mmHg 88%
    21:00 +13°C° 0 mm 2 mps 726 mmHg 90%
    22:00 +12°C° 0 mm 1 mps 727 mmHg 91%
    23:00 +12°C° 0 mm 1 mps 727 mmHg 92%

    19 October, Friday

    Time Temperature Precipitation Wind Pressure Humidity
    00:00 +12°C° 0 mm 1 mps 727 mmHg 92%
    01:00 +11°C° 0 mm 1 mps 727 mmHg 92%
    02:00 +11°C° 0 mm 1 mps 727 mmHg 93%
    03:00 +11°C° 0 mm 1 mps 727 mmHg 93%
    04:00 +11°C° 0 mm 1 mps 727 mmHg 93%
    05:00 +11°C° 0 mm 1 mps 727 mmHg 93%
    06:00 +11°C° 0 mm 1 mps 727 mmHg 93%
    07:00 +10°C° 0 mm 1 mps 727 mmHg 93%
    08:00 +12°C° 0 mm 1 mps 728 mmHg 86%
    09:00 +14°C° 0 mm 1 mps 728 mmHg 80%
    10:00 +16°C° 0 mm 2 mps 728 mmHg 74%
    11:00 +17°C° 0 mm 2 mps 728 mmHg 70%
    12:00 +18°C° 0 mm 2 mps 728 mmHg 66%
    13:00 +19°C° 0 mm 2 mps 728 mmHg 61%
    14:00 +19°C° 0 mm 2 mps 728 mmHg 63%
    15:00 +19°C° 0 mm 2 mps 728 mmHg 64%
    16:00 +19°C° 0 mm 2 mps 728 mmHg 66%
    17:00 +17°C° 0 mm 2 mps 728 mmHg 73%
    18:00 +15°C° 0 mm 2 mps 728 mmHg 80%
    19:00 +13°C° 0 mm 2 mps 729 mmHg 87%
    20:00 +13°C° 0 mm 1 mps 729 mmHg 89%
    21:00 +12°C° 0 mm 1 mps 729 mmHg 90%
    22:00 +12°C° 0 mm 1 mps 729 mmHg 92%
    23:00 +11°C° 0 mm 1 mps 730 mmHg 92%

    20 October, Saturday

    Time Temperature Precipitation Wind Pressure Humidity
    00:00 +11°C° 0 mm 1 mps 730 mmHg 92%
    01:00 +10°C° 0 mm 1 mps 730 mmHg 93%
    02:00 +10°C° 0 mm 1 mps 730 mmHg 93%
    03:00 +10°C° 0 mm 1 mps 730 mmHg 93%
    04:00 +10°C° 0 mm 1 mps 730 mmHg 93%
    05:00 +9°C° 0 mm 1 mps 730 mmHg 93%
    06:00 +9°C° 0 mm 1 mps 730 mmHg 93%
    07:00 +9°C° 0 mm 1 mps 730 mmHg 94%
    08:00 +11°C° 0 mm 1 mps 731 mmHg 87%
    09:00 +13°C° 0 mm 1 mps 731 mmHg 80%
    10:00 +15°C° 0 mm 1 mps 731 mmHg 74%
    11:00 +16°C° 0 mm 2 mps 731 mmHg 69%
    12:00 +17°C° 0 mm 2 mps 731 mmHg 65%
    13:00 +18°C° 0 mm 3 mps 731 mmHg 61%
    14:00 +18°C° 0 mm 3 mps 731 mmHg 62%
    15:00 +18°C° 0 mm 3 mps 731 mmHg 64%
    16:00 +18°C° 0 mm 3 mps 731 mmHg 66%
    17:00 +16°C° 0 mm 2 mps 731 mmHg 74%
    18:00 +14°C° 0 mm 2 mps 731 mmHg 82%
    19:00 +12°C° 0 mm 2 mps 731 mmHg 90%
    20:00 +12°C° 0 mm 2 mps 732 mmHg 91%
    21:00 +10°C° 0 mm 2 mps 732 mmHg 92%
    22:00 +10°C° 0 mm 2 mps 732 mmHg 94%
    23:00 +10°C° 0 mm 2 mps 732 mmHg 94%

    21 October, Sunday

    Time Temperature Precipitation Wind Pressure Humidity
    00:00 +10°C° 0 mm 1 mps 732 mmHg 94%
    01:00 +10°C° 0 mm 1 mps 732 mmHg 94%
    02:00 +10°C° 0 mm 1 mps 732 mmHg 93%
    03:00 +10°C° 0 mm 1 mps 732 mmHg 93%
    04:00 +10°C° 0 mm 1 mps 731 mmHg 92%
    05:00 +10°C° 0 mm 1 mps 731 mmHg 92%
    06:00 +9°C° 0 mm 1 mps 732 mmHg 91%
    07:00 +9°C° 0 mm 1 mps 732 mmHg 91%
    08:00 +11°C° 0 mm 1 mps 732 mmHg 85%
    09:00 +12°C° 0 mm 2 mps 732 mmHg 79%
    10:00 +13°C° 0 mm 2 mps 732 mmHg 73%
    11:00 +14°C° 0 mm 2 mps 732 mmHg 68%
    12:00 +16°C° 0 mm 2 mps 732 mmHg 63%
    13:00 +17°C° 0 mm 2 mps 731 mmHg 59%
    14:00 +16°C° 0 mm 2 mps 731 mmHg 60%
    15:00 +16°C° 0 mm 2 mps 731 mmHg 61%
    16:00 +16°C° 0 mm 2 mps 731 mmHg 62%
    17:00 +14°C° 0 mm 2 mps 731 mmHg 70%
    18:00 +12°C° 0 mm 1 mps 731 mmHg 78%
    19:00 +10°C° 0 mm 1 mps 731 mmHg 86%
    20:00 +10°C° 0 mm 1 mps 731 mmHg 87%
    21:00 +9°C° 0 mm 1 mps 731 mmHg 88%
    22:00 +9°C° 0 mm 1 mps 731 mmHg 89%
    23:00 +8°C° 0 mm 1 mps 731 mmHg 90%
    Show more